Regional Weather Roundup
Issued by NWS

Home | Current Version | Previous Version | Text Only | Print | Product List | Glossary On
Versions: 1 2 3 4 5 6 7 8 9 10 11 12 13 14 15 16 17 18 19 20 21 22 23 24 25 26 27 28 29 30 31 32 33 34 35 36 37 38 39 40 41 42 43 44 45 46 47 48 49 50
331
ASUS44 KOUN 200510
RWROK

WEATHER ROUNDUP FOR OKLAHOMA
NATIONAL WEATHER SERVICE NORMAN OK
1200 AM CDT FRI APR 20 2018

NOTE: "FAIR" INDICATES FEW OR NO CLOUDS BELOW 12,000 FEET WITH NO
      SIGNIFICANT WEATHER AND/OR OBSTRUCTIONS TO VISIBILITY.

OKZ001>007-009>012-014-015-017-200600-
NORTHWEST OKLAHOMA AND THE PANHANDLE

CITY           SKY/WX    TMP DP  RH WIND       PRES   REMARKS
GAGE           PTCLDY    49  28  44 E7        30.27R
GUYMON         CLOUDY    54  28  36 SE13      30.19S
ENID/WOODRING  CLEAR     45  32  61 E12       30.30F
$$

OKZ016-021>023-033>039-044-045-200600-
SOUTHWEST OKLAHOMA

CITY           SKY/WX    TMP DP  RH WIND       PRES   REMARKS
LAWTON/REGL    CLOUDY    50  33  52 SE3       30.26F
LAWTON/FT SILL CLOUDY    50  35  56 E6        30.25F
FREDERICK      CLOUDY    50  28  42 E9        30.23S
CLINTON        CLEAR     49  29  46 E8        30.27F
HOBART         CLEAR     44  29  55 E7        30.27S
ALTUS AFB      PTCLDY    47  27  46 E8        30.26S
$$

OKZ018>020-024>031-200600-
CENTRAL OKLAHOMA

CITY           SKY/WX    TMP DP  RH WIND       PRES   REMARKS
OKLAHOMA CITY  PTCLDY    50  33  52 E14       30.29F
OKC/WILEY POST CLEAR     52  33  48 E13       30.30F
OKC/TINKER AFB CLEAR     48  33  54 E9        30.29F
STILLWATER     CLEAR     47  30  51 E8        30.33S
GUTHRIE        CLEAR     49  32  52 E12       30.31F
$$

OKZ008-013-054>072-200600-
NORTHEAST OKLAHOMA

CITY           SKY/WX    TMP DP  RH WIND       PRES   REMARKS
TULSA          CLEAR     50  34  54 NE5       30.34F
TULSA/JONES    CLEAR     48  33  56 NE5       30.34F
PONCA CITY     CLEAR     48  31  51 E9        30.33F
BARTLESVILLE   CLEAR     37  30  75 CALM      30.37F
MUSKOGEE       CLEAR     45  37  73 N5        30.35S
$$

OKZ032-040>043-046>053-073>077-200600-
SOUTH CENTRAL/SOUTHEAST OKLAHOMA

CITY           SKY/WX    TMP DP  RH WIND       PRES   REMARKS
ARDMORE/DWNTWN CLEAR     50  36  57 CALM      30.30R
MCALESTER      CLEAR     47  37  68 NE5       30.32F
$$





USA.gov is the U.S. government's official web portal to all federal, state and local government web resources and services.